contact:dominique.lefevre@mio.osupytheas.fr, maurice.libes@osupytheas.fr, didier.mallarino@osupytheas.fr
Project:EMSO http://www.emso-fr.org/EMSO-France
Depth: 2436.0 m
Title:EMSO Ligure Ouest : Data MII capteur MICROCAT
DateTime_Computer,Latitude,Longitude,Temperature,Conductivity,Pressure,DateTime_Instrument
DateTime_Computer,Latitude,Longitude,degC,S m-1,dbar,DateTime_Instrument
2022-09-21T00:00:39Z,42.805,6.029,13.3068,4.60125,2470.553,2022-9-21T02:02:32Z
2022-09-21T00:03:42Z,42.805,6.029,13.3042,4.60140,2470.591,2022-9-21T02:05:35Z
2022-09-21T00:06:45Z,42.805,6.029,13.3054,4.60135,2470.577,2022-9-21T02:08:38Z
2022-09-21T00:09:48Z,42.805,6.029,13.3050,4.60163,2470.591,2022-9-21T02:11:41Z
2022-09-21T00:12:51Z,42.805,6.029,13.3043,4.60131,2470.591,2022-9-21T02:14:44Z
2022-09-21T00:15:55Z,42.805,6.029,13.3045,4.60175,2470.577,2022-9-21T02:17:48Z
2022-09-21T00:18:58Z,42.805,6.029,13.3046,4.60165,2470.53,2022-9-21T02:20:51Z
2022-09-21T00:22:01Z,42.805,6.029,13.3043,4.60125,2470.539,2022-9-21T02:23:54Z
2022-09-21T00:25:04Z,42.805,6.029,13.3046,4.60128,2470.567,2022-9-21T02:26:57Z
2022-09-21T00:28:07Z,42.805,6.029,13.3055,4.60147,2470.567,2022-9-21T02:30:00Z
2022-09-21T00:31:10Z,42.805,6.029,13.3060,4.60109,2470.553,2022-9-21T02:33:03Z
2022-09-21T00:34:13Z,42.805,6.029,13.3063,4.60114,2470.544,2022-9-21T02:36:06Z
2022-09-21T00:37:16Z,42.805,6.029,13.3050,4.60139,2470.53,2022-9-21T02:39:09Z
2022-09-21T00:40:20Z,42.805,6.029,13.3054,4.60146,2470.567,2022-9-21T02:42:12Z
2022-09-21T00:43:23Z,42.805,6.029,13.3088,4.60140,2470.544,2022-9-21T02:45:16Z
2022-09-21T00:46:26Z,42.805,6.029,13.3058,4.60150,2470.53,2022-9-21T02:48:19Z
2022-09-21T00:49:29Z,42.805,6.029,13.3074,4.60129,2470.507,2022-9-21T02:51:22Z
2022-09-21T00:52:32Z,42.805,6.029,13.3053,4.60129,2470.553,2022-9-21T02:54:25Z
2022-09-21T00:55:35Z,42.805,6.029,13.3043,4.60122,2470.567,2022-9-21T02:57:28Z
2022-09-21T00:58:38Z,42.805,6.029,13.3041,4.60164,2470.53,2022-9-21T03:00:31Z
2022-09-21T01:01:41Z,42.805,6.029,13.3046,4.60132,2470.53,2022-9-21T03:03:34Z
2022-09-21T01:04:45Z,42.805,6.029,13.3046,4.60134,2470.567,2022-9-21T03:06:37Z
2022-09-21T01:07:48Z,42.805,6.029,13.3041,4.60131,2470.553,2022-9-21T03:09:41Z
2022-09-21T01:10:51Z,42.805,6.029,13.3036,4.60154,2470.577,2022-9-21T03:12:44Z
2022-09-21T01:13:54Z,42.805,6.029,13.3069,4.60127,2470.553,2022-9-21T03:15:47Z
2022-09-21T01:16:57Z,42.805,6.029,13.3043,4.60136,2470.553,2022-9-21T03:18:50Z
2022-09-21T01:20:00Z,42.805,6.029,13.3034,4.60134,2470.553,2022-9-21T03:21:53Z
2022-09-21T01:23:03Z,42.805,6.029,13.3046,4.60103,2470.53,2022-9-21T03:24:56Z
2022-09-21T01:26:06Z,42.805,6.029,13.3056,4.60125,2470.591,2022-9-21T03:27:59Z
2022-09-21T01:29:10Z,42.805,6.029,13.3043,4.60137,2470.544,2022-9-21T03:31:02Z
2022-09-21T01:32:13Z,42.805,6.029,13.3062,4.60142,2470.544,2022-9-21T03:34:06Z
2022-09-21T01:35:16Z,42.805,6.029,13.3063,4.60173,2470.52,2022-9-21T03:37:09Z
2022-09-21T01:38:19Z,42.805,6.029,13.3042,4.60149,2470.567,2022-9-21T03:40:12Z
2022-09-21T01:41:22Z,42.805,6.029,13.3059,4.60143,2470.567,2022-9-21T03:43:15Z
2022-09-21T01:44:25Z,42.805,6.029,13.3029,4.60152,2470.577,2022-9-21T03:46:18Z
2022-09-21T01:47:28Z,42.805,6.029,13.3047,4.60142,2470.553,2022-9-21T03:49:21Z
2022-09-21T01:50:31Z,42.805,6.029,13.3048,4.60114,2470.567,2022-9-21T03:52:24Z
2022-09-21T01:53:34Z,42.805,6.029,13.3040,4.60144,2470.591,2022-9-21T03:55:27Z
2022-09-21T01:56:38Z,42.805,6.029,13.3051,4.60127,2470.553,2022-9-21T03:58:31Z
2022-09-21T01:59:41Z,42.805,6.029,13.3048,4.60106,2470.567,2022-9-21T04:01:34Z
2022-09-21T02:02:44Z,42.805,6.029,13.3033,4.60114,2470.591,2022-9-21T04:04:37Z
2022-09-21T02:05:47Z,42.805,6.029,13.3042,4.60097,2470.567,2022-9-21T04:07:40Z
2022-09-21T02:08:50Z,42.805,6.029,13.3036,4.60122,2470.553,2022-9-21T04:10:43Z
2022-09-21T02:11:53Z,42.805,6.029,13.3037,4.60104,2470.591,2022-9-21T04:13:46Z
2022-09-21T02:14:56Z,42.805,6.029,13.3037,4.60150,2470.553,2022-9-21T04:16:49Z
2022-09-21T02:17:59Z,42.805,6.029,13.3038,4.60149,2470.577,2022-9-21T04:19:52Z
2022-09-21T02:21:03Z,42.805,6.029,13.3047,4.60139,2470.6,2022-9-21T04:22:55Z
2022-09-21T02:24:06Z,42.805,6.029,13.3047,4.60111,2470.553,2022-9-21T04:25:59Z
2022-09-21T02:27:09Z,42.805,6.029,13.3065,4.60127,2470.553,2022-9-21T04:29:02Z
2022-09-21T02:30:12Z,42.805,6.029,13.3051,4.60119,2470.577,2022-9-21T04:32:05Z
2022-09-21T02:33:15Z,42.805,6.029,13.3042,4.60108,2470.577,2022-9-21T04:35:08Z
2022-09-21T02:36:18Z,42.805,6.029,13.3036,4.60112,2470.591,2022-9-21T04:38:11Z
2022-09-21T02:39:21Z,42.805,6.029,13.3044,4.60115,2470.567,2022-9-21T04:41:14Z
2022-09-21T02:42:24Z,42.805,6.029,13.3040,4.60110,2470.614,2022-9-21T04:44:17Z
2022-09-21T02:45:28Z,42.805,6.029,13.3029,4.60120,2470.591,2022-9-21T04:47:20Z
2022-09-21T02:48:31Z,42.805,6.029,13.3036,4.60144,2470.553,2022-9-21T04:50:24Z
2022-09-21T02:51:34Z,42.805,6.029,13.3040,4.60105,2470.577,2022-9-21T04:53:27Z
2022-09-21T02:54:37Z,42.805,6.029,13.3047,4.60107,2470.591,2022-9-21T04:56:30Z
2022-09-21T02:57:40Z,42.805,6.029,13.3043,4.60101,2470.614,2022-9-21T04:59:33Z
2022-09-21T03:00:43Z,42.805,6.029,13.3026,4.60115,2470.614,2022-9-21T05:02:36Z
2022-09-21T03:03:46Z,42.805,6.029,13.3045,4.60137,2470.591,2022-9-21T05:05:39Z
2022-09-21T03:06:49Z,42.805,6.029,13.3045,4.60157,2470.591,2022-9-21T05:08:42Z
2022-09-21T03:09:52Z,42.805,6.029,13.3047,4.60133,2470.591,2022-9-21T05:11:45Z
2022-09-21T03:12:56Z,42.805,6.029,13.3043,4.60128,2470.553,2022-9-21T05:14:49Z
2022-09-21T03:15:59Z,42.805,6.029,13.3041,4.60134,2470.553,2022-9-21T05:17:52Z
2022-09-21T03:19:02Z,42.805,6.029,13.3051,4.60129,2470.577,2022-9-21T05:20:55Z
2022-09-21T03:22:05Z,42.805,6.029,13.3029,4.60120,2470.6,2022-9-21T05:23:58Z
2022-09-21T03:25:08Z,42.805,6.029,13.3024,4.60124,2470.567,2022-9-21T05:27:01Z
2022-09-21T03:28:11Z,42.805,6.029,13.3030,4.60125,2470.577,2022-9-21T05:30:04Z
2022-09-21T03:31:14Z,42.805,6.029,13.3038,4.60132,2470.577,2022-9-21T05:33:07Z
2022-09-21T03:34:17Z,42.805,6.029,13.3032,4.60164,2470.553,2022-9-21T05:36:10Z
2022-09-21T03:37:21Z,42.805,6.029,13.3031,4.60134,2470.567,2022-9-21T05:39:13Z
2022-09-21T03:40:24Z,42.805,6.029,13.3019,4.60114,2470.567,2022-9-21T05:42:17Z
2022-09-21T03:43:27Z,42.805,6.029,13.3027,4.60099,2470.6,2022-9-21T05:45:20Z
2022-09-21T03:46:30Z,42.805,6.029,13.3024,4.60109,2470.577,2022-9-21T05:48:23Z
2022-09-21T03:49:33Z,42.805,6.029,13.3024,4.60122,2470.591,2022-9-21T05:51:26Z
2022-09-21T03:52:36Z,42.805,6.029,13.3022,4.60101,2470.614,2022-9-21T05:54:29Z
2022-09-21T03:55:39Z,42.805,6.029,13.3027,4.60092,2470.6,2022-9-21T05:57:32Z
2022-09-21T03:58:42Z,42.805,6.029,13.3029,4.60146,2470.591,2022-9-21T06:00:35Z
2022-09-21T04:01:46Z,42.805,6.029,13.3019,4.60108,2470.577,2022-9-21T06:03:38Z
2022-09-21T04:04:49Z,42.805,6.029,13.3025,4.60104,2470.6,2022-9-21T06:06:42Z
2022-09-21T04:07:52Z,42.805,6.029,13.3029,4.60100,2470.577,2022-9-21T06:09:45Z
2022-09-21T04:11:07Z,42.805,6.029,13.3021,4.60115,2470.577,2022-9-21T06:12:48Z
2022-09-21T04:13:58Z,42.805,6.029,13.3047,4.60122,2470.577,2022-9-21T06:15:51Z
2022-09-21T04:17:01Z,42.805,6.029,13.3051,4.60104,2470.6,2022-9-21T06:18:54Z
2022-09-21T04:20:04Z,42.805,6.029,13.3062,4.60106,2470.591,2022-9-21T06:21:57Z
2022-09-21T04:23:07Z,42.805,6.029,13.3058,4.60129,2470.6,2022-9-21T06:25:00Z
2022-09-21T04:26:10Z,42.805,6.029,13.3057,4.60091,2470.591,2022-9-21T06:28:03Z
2022-09-21T04:29:13Z,42.805,6.029,13.3056,4.60142,2470.6,2022-9-21T06:31:06Z
2022-09-21T04:32:16Z,42.805,6.029,13.3058,4.60135,2470.577,2022-9-21T06:34:09Z
2022-09-21T04:35:20Z,42.805,6.029,13.3045,4.60145,2470.614,2022-9-21T06:37:13Z
2022-09-21T04:38:23Z,42.805,6.029,13.3046,4.60147,2470.591,2022-9-21T06:40:16Z
2022-09-21T04:41:26Z,42.805,6.029,13.3061,4.60135,2470.6,2022-9-21T06:43:19Z
2022-09-21T04:44:29Z,42.805,6.029,13.3056,4.60115,2470.591,2022-9-21T06:46:22Z
2022-09-21T04:47:32Z,42.805,6.029,13.3065,4.60117,2470.577,2022-9-21T06:49:25Z
2022-09-21T04:50:35Z,42.805,6.029,13.3043,4.60156,2470.6,2022-9-21T06:52:28Z
2022-09-21T04:53:38Z,42.805,6.029,13.3074,4.60152,2470.6,2022-9-21T06:55:31Z
2022-09-21T04:56:41Z,42.805,6.029,13.3047,4.60132,2470.591,2022-9-21T06:58:34Z
2022-09-21T04:59:45Z,42.805,6.029,13.3063,4.60123,2470.577,2022-9-21T07:01:37Z
2022-09-21T05:02:48Z,42.805,6.029,13.3050,4.60136,2470.577,2022-9-21T07:04:41Z
2022-09-21T05:05:51Z,42.805,6.029,13.3054,4.60115,2470.577,2022-9-21T07:07:44Z
2022-09-21T05:08:54Z,42.805,6.029,13.3044,4.60127,2470.6,2022-9-21T07:10:47Z
2022-09-21T05:11:57Z,42.805,6.029,13.3066,4.60152,2470.614,2022-9-21T07:13:50Z
2022-09-21T05:15:00Z,42.805,6.029,13.3036,4.60129,2470.577,2022-9-21T07:16:53Z
2022-09-21T05:18:03Z,42.805,6.029,13.3040,4.60133,2470.591,2022-9-21T07:19:56Z
2022-09-21T05:21:06Z,42.805,6.029,13.3052,4.60102,2470.567,2022-9-21T07:22:59Z
2022-09-21T05:24:10Z,42.805,6.029,13.3084,4.60138,2470.591,2022-9-21T07:26:02Z
2022-09-21T05:27:13Z,42.805,6.029,13.3080,4.60145,2470.6,2022-9-21T07:29:06Z
2022-09-21T05:30:16Z,42.805,6.029,13.3062,4.60152,2470.637,2022-9-21T07:32:09Z
2022-09-21T05:33:19Z,42.805,6.029,13.3094,4.60176,2470.567,2022-9-21T07:35:12Z
2022-09-21T05:36:22Z,42.805,6.029,13.3091,4.60150,2470.614,2022-9-21T07:38:15Z
2022-09-21T05:39:25Z,42.805,6.029,13.3058,4.60146,2470.591,2022-9-21T07:41:18Z
2022-09-21T05:42:28Z,42.805,6.029,13.3074,4.60139,2470.6,2022-9-21T07:44:21Z
2022-09-21T05:45:31Z,42.805,6.029,13.3076,4.60148,2470.591,2022-9-21T07:47:24Z
2022-09-21T05:48:34Z,42.805,6.029,13.3073,4.60153,2470.577,2022-9-21T07:50:27Z
2022-09-21T05:51:38Z,42.805,6.029,13.3061,4.60132,2470.624,2022-9-21T07:53:31Z
2022-09-21T05:54:41Z,42.805,6.029,13.3070,4.60159,2470.6,2022-9-21T07:56:34Z
2022-09-21T05:57:44Z,42.805,6.029,13.3074,4.60147,2470.577,2022-9-21T07:59:37Z
2022-09-21T06:00:47Z,42.805,6.029,13.3066,4.60172,2470.553,2022-9-21T08:02:40Z
2022-09-21T06:03:50Z,42.805,6.029,13.3084,4.60092,2470.539,2022-9-21T08:05:43Z
2022-09-21T06:06:53Z,42.805,6.029,13.3093,4.60092,2470.553,2022-9-21T08:08:46Z
2022-09-21T06:09:56Z,42.805,6.029,13.3059,4.60096,2470.614,2022-9-21T08:11:49Z
2022-09-21T06:12:59Z,42.805,6.029,13.3075,4.60150,2470.577,2022-9-21T08:14:52Z
2022-09-21T06:16:03Z,42.805,6.029,13.3043,4.60132,2470.567,2022-9-21T08:17:56Z
2022-09-21T06:19:06Z,42.805,6.029,13.3051,4.60103,2470.591,2022-9-21T08:20:59Z
2022-09-21T06:22:09Z,42.805,6.029,13.3046,4.60110,2470.591,2022-9-21T08:24:02Z
2022-09-21T06:25:12Z,42.805,6.029,13.3078,4.60097,2470.553,2022-9-21T08:27:05Z
2022-09-21T06:28:15Z,42.805,6.029,13.3049,4.60079,2470.614,2022-9-21T08:30:08Z
2022-09-21T06:31:18Z,42.805,6.029,13.3041,4.60095,2470.567,2022-9-21T08:33:11Z
2022-09-21T06:34:21Z,42.805,6.029,13.3058,4.60102,2470.591,2022-9-21T08:36:14Z
2022-09-21T06:37:24Z,42.805,6.029,13.3065,4.60085,2470.591,2022-9-21T08:39:17Z
2022-09-21T06:40:28Z,42.805,6.029,13.3044,4.60093,2470.614,2022-9-21T08:42:21Z
2022-09-21T06:43:31Z,42.805,6.029,13.3042,4.60082,2470.53,2022-9-21T08:45:24Z
2022-09-21T06:46:34Z,42.805,6.029,13.3043,4.60099,2470.591,2022-9-21T08:48:27Z
2022-09-21T06:49:37Z,42.805,6.029,13.3077,4.60071,2470.567,2022-9-21T08:51:30Z
2022-09-21T06:52:40Z,42.805,6.029,13.3041,4.60087,2470.567,2022-9-21T08:54:33Z
2022-09-21T06:55:43Z,42.805,6.029,13.3039,4.60080,2470.553,2022-9-21T08:57:36Z
2022-09-21T06:58:46Z,42.805,6.029,13.3068,4.60081,2470.591,2022-9-21T09:00:39Z
2022-09-21T07:01:49Z,42.805,6.029,13.3042,4.60080,2470.553,2022-9-21T09:03:42Z
2022-09-21T07:04:53Z,42.805,6.029,13.3031,4.60089,2470.553,2022-9-21T09:06:45Z
2022-09-21T07:07:56Z,42.805,6.029,13.3053,4.60092,2470.567,2022-9-21T09:09:49Z
2022-09-21T07:10:59Z,42.805,6.029,13.3039,4.60074,2470.567,2022-9-21T09:12:52Z
2022-09-21T07:14:02Z,42.805,6.029,13.3049,4.60091,2470.567,2022-9-21T09:15:55Z
2022-09-21T07:17:05Z,42.805,6.029,13.3050,4.60077,2470.567,2022-9-21T09:18:58Z
2022-09-21T07:20:08Z,42.805,6.029,13.3040,4.60079,2470.553,2022-9-21T09:22:01Z
2022-09-21T07:23:11Z,42.805,6.029,13.3063,4.60077,2470.544,2022-9-21T09:25:04Z
2022-09-21T07:26:14Z,42.805,6.029,13.3046,4.60081,2470.553,2022-9-21T09:28:07Z
2022-09-21T07:29:18Z,42.805,6.029,13.3053,4.60090,2470.567,2022-9-21T09:31:10Z
2022-09-21T07:32:21Z,42.805,6.029,13.3051,4.60073,2470.53,2022-9-21T09:34:14Z
2022-09-21T07:35:24Z,42.805,6.029,13.3061,4.60079,2470.516,2022-9-21T09:37:17Z
2022-09-21T07:38:27Z,42.805,6.029,13.3051,4.60089,2470.544,2022-9-21T09:40:20Z
2022-09-21T07:41:30Z,42.805,6.029,13.3046,4.60083,2470.553,2022-9-21T09:43:23Z
2022-09-21T07:44:33Z,42.805,6.029,13.3041,4.60089,2470.553,2022-9-21T09:46:26Z
2022-09-21T07:47:36Z,42.805,6.029,13.3058,4.60092,2470.553,2022-9-21T09:49:29Z
2022-09-21T07:50:39Z,42.805,6.029,13.3054,4.60081,2470.544,2022-9-21T09:52:32Z
2022-09-21T07:53:42Z,42.805,6.029,13.3042,4.60087,2470.544,2022-9-21T09:55:35Z
2022-09-21T07:56:46Z,42.805,6.029,13.3058,4.60099,2470.53,2022-9-21T09:58:39Z
2022-09-21T07:59:49Z,42.805,6.029,13.3061,4.60084,2470.567,2022-9-21T10:01:42Z
2022-09-21T08:02:52Z,42.805,6.029,13.3069,4.60082,2470.53,2022-9-21T10:04:45Z
2022-09-21T08:05:55Z,42.805,6.029,13.3056,4.60094,2470.544,2022-9-21T10:07:48Z
2022-09-21T08:08:58Z,42.805,6.029,13.3058,4.60081,2470.544,2022-9-21T10:10:51Z
2022-09-21T08:12:01Z,42.805,6.029,13.3069,4.60101,2470.567,2022-9-21T10:13:54Z
2022-09-21T08:15:04Z,42.805,6.029,13.3070,4.60077,2470.553,2022-9-21T10:16:57Z
2022-09-21T08:18:07Z,42.805,6.029,13.3067,4.60092,2470.553,2022-9-21T10:20:00Z
2022-09-21T08:21:11Z,42.805,6.029,13.3066,4.60074,2470.544,2022-9-21T10:23:04Z
2022-09-21T08:24:14Z,42.805,6.029,13.3058,4.60086,2470.53,2022-9-21T10:26:07Z
2022-09-21T08:27:17Z,42.805,6.029,13.3044,4.60085,2470.53,2022-9-21T10:29:10Z
2022-09-21T08:30:20Z,42.805,6.029,13.3061,4.60077,2470.544,2022-9-21T10:32:13Z
2022-09-21T08:33:23Z,42.805,6.029,13.3070,4.60091,2470.507,2022-9-21T10:35:16Z
2022-09-21T08:36:26Z,42.805,6.029,13.3046,4.60087,2470.567,2022-9-21T10:38:19Z
2022-09-21T08:39:29Z,42.805,6.029,13.3046,4.60098,2470.567,2022-9-21T10:41:22Z
2022-09-21T08:42:33Z,42.805,6.029,13.3067,4.60091,2470.544,2022-9-21T10:44:25Z
2022-09-21T08:45:36Z,42.805,6.029,13.3054,4.60095,2470.553,2022-9-21T10:47:29Z
2022-09-21T08:48:39Z,42.805,6.029,13.3051,4.60104,2470.544,2022-9-21T10:50:32Z
2022-09-21T08:51:42Z,42.805,6.029,13.3069,4.60101,2470.544,2022-9-21T10:53:35Z
2022-09-21T08:54:45Z,42.805,6.029,13.3076,4.60090,2470.567,2022-9-21T10:56:38Z
2022-09-21T08:57:48Z,42.805,6.029,13.3092,4.60091,2470.553,2022-9-21T10:59:41Z
2022-09-21T09:00:51Z,42.805,6.029,13.3073,4.60122,2470.567,2022-9-21T11:02:44Z
2022-09-21T09:03:54Z,42.805,6.029,13.3081,4.60094,2470.544,2022-9-21T11:05:47Z
2022-09-21T09:06:57Z,42.805,6.029,13.3084,4.60094,2470.53,2022-9-21T11:08:50Z
2022-09-21T09:10:01Z,42.805,6.029,13.3084,4.60102,2470.53,2022-9-21T11:11:54Z
2022-09-21T09:13:04Z,42.805,6.029,13.3086,4.60090,2470.567,2022-9-21T11:14:57Z
2022-09-21T09:16:08Z,42.805,6.029,13.3084,4.60086,2470.53,2022-9-21T11:18:01Z
2022-09-21T09:19:11Z,42.805,6.029,13.3080,4.60095,2470.544,2022-9-21T11:21:04Z
2022-09-21T09:22:14Z,42.805,6.029,13.3070,4.60129,2470.544,2022-9-21T11:24:07Z
2022-09-21T09:25:17Z,42.805,6.029,13.3073,4.60122,2470.53,2022-9-21T11:27:10Z
2022-09-21T09:28:20Z,42.805,6.029,13.3054,4.60140,2470.553,2022-9-21T11:30:13Z
2022-09-21T09:31:23Z,42.805,6.029,13.3078,4.60112,2470.544,2022-9-21T11:33:16Z
2022-09-21T09:34:26Z,42.805,6.029,13.3048,4.60119,2470.483,2022-9-21T11:36:19Z
2022-09-21T09:37:29Z,42.805,6.029,13.3076,4.60108,2470.544,2022-9-21T11:39:22Z
2022-09-21T09:40:33Z,42.805,6.029,13.3065,4.60103,2470.53,2022-9-21T11:42:26Z
2022-09-21T09:43:36Z,42.805,6.029,13.3070,4.60089,2470.52,2022-9-21T11:45:29Z
2022-09-21T09:46:39Z,42.805,6.029,13.3075,4.60089,2470.507,2022-9-21T11:48:32Z
2022-09-21T09:49:42Z,42.805,6.029,13.3067,4.60104,2470.52,2022-9-21T11:51:35Z
2022-09-21T09:52:45Z,42.805,6.029,13.3069,4.60110,2470.544,2022-9-21T11:54:38Z
2022-09-21T09:55:48Z,42.805,6.029,13.3050,4.60099,2470.52,2022-9-21T11:57:41Z
2022-09-21T09:58:51Z,42.805,6.029,13.3116,4.60090,2470.544,2022-9-21T12:00:44Z
2022-09-21T10:01:54Z,42.805,6.029,13.3083,4.60148,2470.507,2022-9-21T12:03:47Z
2022-09-21T10:04:58Z,42.805,6.029,13.3071,4.60139,2470.53,2022-9-21T12:06:51Z
2022-09-21T10:08:01Z,42.805,6.029,13.3084,4.60114,2470.507,2022-9-21T12:09:54Z
2022-09-21T10:11:04Z,42.805,6.029,13.3032,4.60109,2470.52,2022-9-21T12:12:57Z
2022-09-21T10:14:07Z,42.805,6.029,13.3052,4.60102,2470.483,2022-9-21T12:16:00Z
2022-09-21T10:17:10Z,42.805,6.029,13.3013,4.60106,2470.544,2022-9-21T12:19:03Z
2022-09-21T10:20:13Z,42.805,6.029,13.3014,4.60158,2470.567,2022-9-21T12:22:06Z
2022-09-21T10:23:16Z,42.805,6.029,13.3088,4.60135,2470.53,2022-9-21T12:25:09Z
2022-09-21T10:26:20Z,42.805,6.029,13.3077,4.60099,2470.53,2022-9-21T12:28:12Z
2022-09-21T10:29:23Z,42.805,6.029,13.3047,4.60099,2470.507,2022-9-21T12:31:16Z
2022-09-21T10:32:26Z,42.805,6.029,13.3067,4.60097,2470.53,2022-9-21T12:34:19Z
2022-09-21T10:35:29Z,42.805,6.029,13.3016,4.60114,2470.497,2022-9-21T12:37:22Z
2022-09-21T10:38:32Z,42.805,6.029,13.3088,4.60092,2470.53,2022-9-21T12:40:25Z
2022-09-21T10:41:35Z,42.805,6.029,13.3067,4.60089,2470.544,2022-9-21T12:43:28Z
2022-09-21T10:44:38Z,42.805,6.029,13.3029,4.60098,2470.53,2022-9-21T12:46:31Z
2022-09-21T10:47:41Z,42.805,6.029,13.3098,4.60080,2470.507,2022-9-21T12:49:34Z
2022-09-21T10:50:45Z,42.805,6.029,13.3048,4.60094,2470.544,2022-9-21T12:52:37Z
2022-09-21T10:53:48Z,42.805,6.029,13.3030,4.60136,2470.52,2022-9-21T12:55:41Z
2022-09-21T10:56:51Z,42.805,6.029,13.3018,4.60089,2470.53,2022-9-21T12:58:44Z
2022-09-21T10:59:54Z,42.805,6.029,13.3011,4.60108,2470.516,2022-9-21T13:01:47Z
2022-09-21T11:02:57Z,42.805,6.029,13.3009,4.60091,2470.544,2022-9-21T13:04:50Z
2022-09-21T11:06:00Z,42.805,6.029,13.3009,4.60079,2470.53,2022-9-21T13:07:53Z
2022-09-21T11:09:03Z,42.805,6.029,13.3008,4.60087,2470.544,2022-9-21T13:10:56Z
2022-09-21T11:12:06Z,42.805,6.029,13.3011,4.60063,2470.544,2022-9-21T13:13:59Z
2022-09-21T11:15:10Z,42.805,6.029,13.3009,4.60064,2470.53,2022-9-21T13:17:03Z
2022-09-21T11:18:13Z,42.805,6.029,13.3009,4.60062,2470.507,2022-9-21T13:20:06Z
2022-09-21T11:21:16Z,42.805,6.029,13.3007,4.60072,2470.544,2022-9-21T13:23:09Z
2022-09-21T11:24:19Z,42.805,6.029,13.3009,4.60070,2470.52,2022-9-21T13:26:12Z
2022-09-21T11:27:22Z,42.805,6.029,13.3011,4.60063,2470.544,2022-9-21T13:29:15Z
2022-09-21T11:30:25Z,42.805,6.029,13.3008,4.60064,2470.544,2022-9-21T13:32:18Z
2022-09-21T11:33:28Z,42.805,6.029,13.3007,4.60063,2470.544,2022-9-21T13:35:21Z
2022-09-21T11:36:31Z,42.805,6.029,13.3006,4.60064,2470.53,2022-9-21T13:38:24Z
2022-09-21T11:39:35Z,42.805,6.029,13.3009,4.60067,2470.553,2022-9-21T13:41:28Z
2022-09-21T11:42:38Z,42.805,6.029,13.3007,4.60073,2470.544,2022-9-21T13:44:31Z
2022-09-21T11:45:41Z,42.805,6.029,13.3010,4.60069,2470.544,2022-9-21T13:47:34Z
2022-09-21T11:48:44Z,42.805,6.029,13.3008,4.60063,2470.544,2022-9-21T13:50:37Z
2022-09-21T11:51:47Z,42.805,6.029,13.3005,4.60063,2470.567,2022-9-21T13:53:40Z
2022-09-21T11:54:50Z,42.805,6.029,13.3004,4.60071,2470.53,2022-9-21T13:56:43Z
2022-09-21T11:57:53Z,42.805,6.029,13.3006,4.60064,2470.544,2022-9-21T13:59:46Z
2022-09-21T12:00:56Z,42.805,6.029,13.3008,4.60064,2470.544,2022-9-21T14:02:49Z
2022-09-21T12:04:00Z,42.805,6.029,13.3008,4.60067,2470.591,2022-9-21T14:05:53Z
2022-09-21T12:07:03Z,42.805,6.029,13.3009,4.60058,2470.553,2022-9-21T14:08:56Z
2022-09-21T12:10:06Z,42.805,6.029,13.3009,4.60071,2470.53,2022-9-21T14:11:59Z
2022-09-21T12:13:09Z,42.805,6.029,13.3009,4.60069,2470.553,2022-9-21T14:15:02Z
2022-09-21T12:16:12Z,42.805,6.029,13.3008,4.60067,2470.567,2022-9-21T14:18:05Z
2022-09-21T12:19:15Z,42.805,6.029,13.3009,4.60066,2470.567,2022-9-21T14:21:08Z
2022-09-21T12:22:18Z,42.805,6.029,13.3010,4.60074,2470.567,2022-9-21T14:24:11Z
2022-09-21T12:25:21Z,42.805,6.029,13.3006,4.60074,2470.577,2022-9-21T14:27:14Z
2022-09-21T12:28:25Z,42.805,6.029,13.3013,4.60090,2470.577,2022-9-21T14:30:18Z
2022-09-21T12:31:28Z,42.805,6.029,13.3008,4.60084,2470.6,2022-9-21T14:33:21Z
2022-09-21T12:34:31Z,42.805,6.029,13.3008,4.60070,2470.553,2022-9-21T14:36:24Z
2022-09-21T12:37:34Z,42.805,6.029,13.3009,4.60084,2470.544,2022-9-21T14:39:27Z
2022-09-21T12:40:37Z,42.805,6.029,13.3010,4.60076,2470.553,2022-9-21T14:42:30Z
2022-09-21T12:43:40Z,42.805,6.029,13.3010,4.60074,2470.577,2022-9-21T14:45:33Z
2022-09-21T12:46:43Z,42.805,6.029,13.3008,4.60059,2470.591,2022-9-21T14:48:36Z
2022-09-21T12:49:46Z,42.805,6.029,13.3006,4.60090,2470.567,2022-9-21T14:51:39Z
2022-09-21T12:52:50Z,42.805,6.029,13.3011,4.60075,2470.577,2022-9-21T14:54:43Z
2022-09-21T12:55:53Z,42.805,6.029,13.3009,4.60062,2470.577,2022-9-21T14:57:46Z
2022-09-21T12:58:56Z,42.805,6.029,13.3009,4.60071,2470.553,2022-9-21T15:00:49Z
2022-09-21T13:01:59Z,42.805,6.029,13.3015,4.60056,2470.553,2022-9-21T15:03:52Z
2022-09-21T13:05:02Z,42.805,6.029,13.3014,4.60058,2470.53,2022-9-21T15:06:55Z
2022-09-21T13:08:05Z,42.805,6.029,13.3015,4.60058,2470.539,2022-9-21T15:09:58Z
2022-09-21T13:11:08Z,42.805,6.029,13.3017,4.60054,2470.591,2022-9-21T15:13:01Z
2022-09-21T13:14:11Z,42.805,6.029,13.3013,4.60062,2470.591,2022-9-21T15:16:04Z
2022-09-21T13:17:15Z,42.805,6.029,13.3010,4.60074,2470.577,2022-9-21T15:19:08Z
2022-09-21T13:20:18Z,42.805,6.029,13.3015,4.60070,2470.577,2022-9-21T15:22:11Z
2022-09-21T13:23:21Z,42.805,6.029,13.3011,4.60060,2470.567,2022-9-21T15:25:14Z
2022-09-21T13:26:24Z,42.805,6.029,13.3014,4.60058,2470.577,2022-9-21T15:28:17Z
2022-09-21T13:29:27Z,42.805,6.029,13.3017,4.60064,2470.591,2022-9-21T15:31:20Z
2022-09-21T13:32:30Z,42.805,6.029,13.3014,4.60072,2470.614,2022-9-21T15:34:23Z
2022-09-21T13:35:33Z,42.805,6.029,13.3014,4.60061,2470.577,2022-9-21T15:37:26Z
2022-09-21T13:38:37Z,42.805,6.029,13.3009,4.60054,2470.6,2022-9-21T15:40:29Z
2022-09-21T13:41:40Z,42.805,6.029,13.3014,4.60059,2470.591,2022-9-21T15:43:33Z
2022-09-21T13:44:43Z,42.805,6.029,13.3006,4.60068,2470.614,2022-9-21T15:46:36Z
2022-09-21T13:47:46Z,42.805,6.029,13.3008,4.60054,2470.614,2022-9-21T15:49:39Z
2022-09-21T13:50:49Z,42.805,6.029,13.3008,4.60057,2470.624,2022-9-21T15:52:42Z
2022-09-21T13:53:52Z,42.805,6.029,13.3011,4.60057,2470.637,2022-9-21T15:55:45Z
2022-09-21T13:56:55Z,42.805,6.029,13.3009,4.60054,2470.637,2022-9-21T15:58:48Z
2022-09-21T13:59:58Z,42.805,6.029,13.3006,4.60057,2470.6,2022-9-21T16:01:51Z
2022-09-21T14:03:02Z,42.805,6.029,13.3010,4.60058,2470.646,2022-9-21T16:04:54Z
2022-09-21T14:06:05Z,42.805,6.029,13.3011,4.60053,2470.637,2022-9-21T16:07:58Z
2022-09-21T14:09:08Z,42.805,6.029,13.3011,4.60054,2470.6,2022-9-21T16:11:01Z
2022-09-21T14:12:11Z,42.805,6.029,13.3010,4.60054,2470.624,2022-9-21T16:14:04Z
2022-09-21T14:15:14Z,42.805,6.029,13.3011,4.60055,2470.646,2022-9-21T16:17:07Z
2022-09-21T14:18:17Z,42.805,6.029,13.3010,4.60056,2470.637,2022-9-21T16:20:10Z
2022-09-21T14:21:20Z,42.805,6.029,13.3126,4.60076,2470.637,2022-9-21T16:23:13Z
2022-09-21T14:24:23Z,42.805,6.029,13.3011,4.60074,2470.661,2022-9-21T16:26:16Z
2022-09-21T14:27:27Z,42.805,6.029,13.3010,4.60060,2470.624,2022-9-21T16:29:19Z
2022-09-21T14:30:30Z,42.805,6.029,13.3010,4.60170,2470.624,2022-9-21T16:32:23Z
2022-09-21T14:33:33Z,42.805,6.029,13.3011,4.60076,2470.624,2022-9-21T16:35:26Z
2022-09-21T14:36:36Z,42.805,6.029,13.3012,4.60066,2470.661,2022-9-21T16:38:29Z
2022-09-21T14:39:39Z,42.805,6.029,13.3010,4.60058,2470.6,2022-9-21T16:41:32Z
2022-09-21T14:42:42Z,42.805,6.029,13.3009,4.60077,2470.67,2022-9-21T16:44:35Z
2022-09-21T14:45:45Z,42.805,6.029,13.3009,4.60061,2470.693,2022-9-21T16:47:38Z
2022-09-21T14:48:48Z,42.805,6.029,13.3009,4.60064,2470.624,2022-9-21T16:50:41Z
2022-09-21T14:51:52Z,42.805,6.029,13.3011,4.60084,2470.67,2022-9-21T16:53:44Z
2022-09-21T14:54:55Z,42.805,6.029,13.3012,4.60069,2470.624,2022-9-21T16:56:48Z
2022-09-21T14:57:58Z,42.805,6.029,13.3005,4.60084,2470.67,2022-9-21T16:59:51Z
2022-09-21T15:01:01Z,42.805,6.029,13.3014,4.60063,2470.67,2022-9-21T17:02:54Z
2022-09-21T15:04:04Z,42.805,6.029,13.3014,4.60081,2470.646,2022-9-21T17:05:57Z
2022-09-21T15:07:07Z,42.805,6.029,13.3028,4.60059,2470.67,2022-9-21T17:09:00Z
2022-09-21T15:10:10Z,42.805,6.029,13.3036,4.60072,2470.67,2022-9-21T17:12:03Z